Tignall, GA

2:47 AM EDT on September 26, 2016 (GMT -0400)
Washington-Wilkes County

Weather History for KIIY - April, 2013

Change the Weather History Date:

Monday, April 22, 2013

  Actual Average (KDBN) Record (KDBN)
Temperature  
Mean Temperature 57 °F -  
Max Temperature 68 °F 82 °F 91 °F (1957)
Min Temperature 46 °F 52 °F 33 °F (1983)
Degree Days  
Heating Degree Days 8    
Growing Degree Days 7 (Base 50)    
Moisture  
Dew Point 36 °F    
Average Humidity 48    
Maximum Humidity 67    
Minimum Humidity 28    
Precipitation  
Precipitation 0.00 in - - ()
Sea Level Pressure  
Sea Level Pressure 30.27 in    
Wind  
Wind Speed 7 mph (NE)    
Max Wind Speed 15 mph    
Max Gust Speed 22 mph    
Visibility 8 miles    
Events      
Averages and records for this station are not official NWS values.
T = Trace of Precipitation, MM = Missing Value Source: NWS Daily Summary

Daily Weather History Graph

Daily Weather History Graph

Search for Another Location

Airport or City:

Trip Planner

Search our weather history database for the weather conditions in past years. The results will help you decide how hot, cold, wet, or windy it might be!

Date:

Astronomy

Apr. 22, 2013 Rise Set
Actual Time 6:51 AM EDT 8:07 PM EDT
Civil Twilight 6:25 AM EDT 8:34 PM EDT
Nautical Twilight 5:54 AM EDT 9:05 PM EDT
Astronomical Twilight 5:22 AM EDT 9:37 PM EDT
Moon 5:03 PM EDT (4/22) 4:36 AM EDT (4/22)
Length of Visible Light 14h 08m
Length of Day
13h 16m
Waxing Gibbous, 87% of the Moon is Illuminated
Apr 22
Waxing Gibbous
Apr 25
Full
May 2
Last Quarter
May 9
New
May 18
First Quarter

Hourly Weather History & Observations

Time (EDT) Temp. Windchill Dew Point Humidity Pressure Visibility Wind Dir Wind Speed Gust Speed Precip Events Conditions
12:15 AM 53.6 °F - 39.2 °F 58% 30.31 in 7.0 mi NE 5.8 mph - N/A   Clear
12:35 AM 53.6 °F - 39.2 °F 58% 30.31 in 10.0 mi ENE 8.1 mph - N/A   Clear
12:55 AM 53.6 °F - 39.2 °F 58% 30.31 in 7.0 mi ENE 6.9 mph - N/A   Clear
1:15 AM 53.6 °F - 39.2 °F 58% 30.31 in 10.0 mi ENE 6.9 mph - N/A   Clear
1:35 AM 53.6 °F - 41.0 °F 62% 30.31 in 7.0 mi ENE 6.9 mph - N/A   Clear
1:55 AM 53.6 °F - 39.2 °F 58% 30.31 in 7.0 mi ENE 8.1 mph - N/A   Clear
2:15 AM 53.6 °F - 41.0 °F 62% 30.31 in 7.0 mi ENE 5.8 mph - N/A   Clear
2:35 AM 53.6 °F - 41.0 °F 62% 30.31 in 7.0 mi ENE 6.9 mph - N/A   Clear
2:55 AM 53.6 °F - 41.0 °F 62% 30.30 in 7.0 mi ENE 9.2 mph - N/A   Clear
3:15 AM 51.8 °F - 41.0 °F 67% 30.30 in 7.0 mi ENE 5.8 mph - N/A   Clear
3:35 AM 51.8 °F - 41.0 °F 67% 30.29 in 7.0 mi ENE 8.1 mph - N/A   Clear
3:55 AM 51.8 °F - 41.0 °F 67% 30.28 in 7.0 mi ENE 6.9 mph - N/A   Clear
4:15 AM 51.8 °F - 41.0 °F 67% 30.28 in 7.0 mi NE 8.1 mph - N/A   Clear
4:35 AM 50.0 °F - 39.2 °F 66% 30.28 in 7.0 mi ENE 8.1 mph - N/A   Clear
4:55 AM 50.0 °F - 37.4 °F 62% 30.28 in 7.0 mi NE 8.1 mph - N/A   Clear
5:15 AM 50.0 °F - 39.2 °F 66% 30.29 in 7.0 mi ENE 8.1 mph - N/A   Scattered Clouds
5:35 AM 51.8 °F - 37.4 °F 58% 30.29 in 7.0 mi ENE 5.8 mph - N/A   Scattered Clouds
5:55 AM 51.8 °F - 37.4 °F 58% 30.30 in 7.0 mi ENE 9.2 mph - N/A   Scattered Clouds
6:15 AM 50.0 °F - 35.6 °F 58% 30.30 in 10.0 mi ENE 9.2 mph - N/A   Scattered Clouds
6:35 AM 48.2 °F - 33.8 °F 58% 30.31 in 7.0 mi ENE 6.9 mph - N/A   Clear
6:55 AM 46.4 °F 43.5 °F 33.8 °F 62% 30.32 in 7.0 mi NE 5.8 mph - N/A   Clear
7:15 AM 48.2 °F - 33.8 °F 58% 30.33 in 7.0 mi NE 9.2 mph 16.1 mph N/A   Scattered Clouds
7:35 AM 48.2 °F - 33.8 °F 58% 30.34 in 7.0 mi NNE 8.1 mph - N/A   Scattered Clouds
7:55 AM 48.2 °F - 35.6 °F 62% 30.34 in 7.0 mi NE 9.2 mph 16.1 mph N/A   Clear
8:15 AM 48.2 °F - 35.6 °F 62% 30.34 in 7.0 mi NE 11.5 mph 18.4 mph N/A   Clear
8:35 AM 51.8 °F - 37.4 °F 58% 30.35 in 7.0 mi NE 11.5 mph 18.4 mph N/A   Scattered Clouds
8:55 AM 51.8 °F - 37.4 °F 58% 30.34 in 7.0 mi NE 15.0 mph 20.7 mph N/A   Scattered Clouds
9:15 AM 50.0 °F - 35.6 °F 58% 30.34 in 5.0 mi ENE 12.7 mph 18.4 mph N/A   Haze
9:35 AM 53.6 °F - 35.6 °F 51% 30.34 in 7.0 mi NE 10.4 mph 21.9 mph N/A   Clear
9:55 AM 53.6 °F - 35.6 °F 51% 30.34 in 7.0 mi ENE 9.2 mph 17.3 mph N/A   Clear
10:15 AM 53.6 °F - 33.8 °F 47% 30.33 in 7.0 mi ENE 15.0 mph 21.9 mph N/A   Clear
10:35 AM 55.4 °F - 35.6 °F 47% 30.34 in 7.0 mi NE 10.4 mph 17.3 mph N/A   Clear
10:55 AM 59.0 °F - 35.6 °F 42% 30.32 in 7.0 mi ENE 12.7 mph 18.4 mph N/A   Clear
11:15 AM 59.0 °F - 33.8 °F 39% 30.32 in 7.0 mi ENE 9.2 mph 18.4 mph N/A   Clear
11:35 AM 59.0 °F - 33.8 °F 39% 30.32 in 7.0 mi NNE 12.7 mph 18.4 mph N/A   Clear
11:55 AM 59.0 °F - 32.0 °F 36% 30.32 in 7.0 mi NE 11.5 mph 21.9 mph N/A   Clear
12:15 PM 60.8 °F - 33.8 °F 36% 30.31 in 7.0 mi ENE 12.7 mph 19.6 mph N/A   Clear
12:35 PM 60.8 °F - 33.8 °F 36% 30.30 in 7.0 mi NNE 8.1 mph - N/A   Clear
12:55 PM 62.6 °F - 33.8 °F 34% 30.30 in 7.0 mi NE 10.4 mph - N/A   Clear
1:15 PM 60.8 °F - 33.8 °F 36% 30.29 in 7.0 mi NE 6.9 mph - N/A   Clear
1:35 PM 64.4 °F - 35.6 °F 34% 30.28 in 7.0 mi NNE 5.8 mph - N/A   Clear
1:55 PM 64.4 °F - 33.8 °F 32% 30.27 in 7.0 mi NNE 4.6 mph - N/A   Clear
2:15 PM 64.4 °F - 33.8 °F 32% 30.27 in 7.0 mi ENE 9.2 mph - N/A   Clear
2:35 PM 64.4 °F - 33.8 °F 32% 30.26 in 7.0 mi East 8.1 mph - N/A   Clear
2:55 PM 64.4 °F - 32.0 °F 30% 30.24 in 7.0 mi ENE 3.5 mph - N/A   Clear
3:15 PM 66.2 °F - 33.8 °F 30% 30.24 in 7.0 mi NE 5.8 mph - N/A   Clear
3:35 PM 66.2 °F - 32.0 °F 28% 30.23 in 10.0 mi NE 9.2 mph - N/A   Clear
3:55 PM 66.2 °F - 33.8 °F 30% 30.22 in 7.0 mi NNE 4.6 mph - N/A   Clear
4:15 PM 68.0 °F - 33.8 °F 28% 30.21 in 7.0 mi NE 6.9 mph - N/A   Clear
4:35 PM 68.0 °F - 33.8 °F 28% 30.20 in 7.0 mi East 3.5 mph - N/A   Clear
4:55 PM 66.2 °F - 33.8 °F 30% 30.19 in 7.0 mi ENE 6.9 mph - N/A   Clear
5:15 PM 68.0 °F - 33.8 °F 28% 30.19 in 7.0 mi East 4.6 mph - N/A   Clear
5:35 PM 68.0 °F - 33.8 °F 28% 30.19 in 10.0 mi NE 6.9 mph - N/A   Clear
5:55 PM 68.0 °F - 33.8 °F 28% 30.18 in 7.0 mi ENE 5.8 mph - N/A   Clear
6:15 PM 66.2 °F - 33.8 °F 30% 30.18 in 7.0 mi ENE 6.9 mph - N/A   Clear
6:35 PM 66.2 °F - 33.8 °F 30% 30.18 in 10.0 mi ENE 5.8 mph - N/A   Clear
6:55 PM 64.4 °F - 33.8 °F 32% 30.18 in 7.0 mi ENE 4.6 mph - N/A   Clear
7:15 PM 64.4 °F - 35.6 °F 34% 30.18 in 7.0 mi NE 5.8 mph - N/A   Clear
7:35 PM 64.4 °F - 37.4 °F 37% 30.19 in 7.0 mi NE 4.6 mph - N/A   Clear
7:55 PM 60.8 °F - 37.4 °F 42% 30.19 in 10.0 mi NNE 4.6 mph - N/A   Clear
8:15 PM 59.0 °F - 37.4 °F 45% 30.19 in 7.0 mi NE 4.6 mph - N/A   Clear
8:35 PM 59.0 °F - 37.4 °F 45% 30.20 in 10.0 mi NNE 5.8 mph - N/A   Clear
8:55 PM 59.0 °F - 37.4 °F 45% 30.20 in 10.0 mi NE 4.6 mph - N/A   Clear
9:15 PM 59.0 °F - 37.4 °F 45% 30.21 in 10.0 mi NE 4.6 mph - N/A   Clear
9:35 PM 55.4 °F - 37.4 °F 51% 30.21 in 7.0 mi NE 3.5 mph - N/A   Clear
9:55 PM 53.6 °F - 37.4 °F 54% 30.22 in 10.0 mi ENE 3.5 mph - N/A   Clear
10:15 PM 53.6 °F - 37.4 °F 54% 30.22 in 7.0 mi ENE 4.6 mph - N/A   Clear
10:35 PM 53.6 °F - 37.4 °F 54% 30.22 in 7.0 mi ENE 5.8 mph - N/A   Clear
10:55 PM 53.6 °F - 39.2 °F 58% 30.23 in 7.0 mi ENE 4.6 mph - N/A   Clear
11:15 PM 51.8 °F - 39.2 °F 62% 30.23 in 7.0 mi ENE 4.6 mph - N/A   Clear
11:35 PM 53.6 °F - 37.4 °F 54% 30.23 in 10.0 mi ENE 4.6 mph - N/A   Clear
11:55 PM 53.6 °F - 37.4 °F 54% 30.23 in 7.0 mi ENE 4.6 mph - N/A   Clear